Location: Prairie Dale
(45.6972°N, 104.5033°W)
Time: 12:45:52
(UTC+00:00)

METEOR 2-5 DEB - Visible Passes

Search period start: 08 December 2022 00:00
Search period end: 18 December 2022 00:00
Orbit: 650 x 672 km, 81.2° (Epoch: 07 December)

Date Brightness Start Highest point End Pass type
(mag) Time Alt. Az. Time Alt. Az. Time Alt. Az.
08 Dec ? 00:27:02 10° S 00:31:34 68° E 00:36:08 10° NNE visible
08 Dec ? 02:08:33 10° W 02:11:01 14° WNW 02:13:28 10° NNW visible
09 Dec ? 00:57:47 10° SSW 01:02:13 49° WNW 01:06:41 10° N visible
09 Dec ? 23:49:41 10° SSE 23:53:57 41° E 23:58:17 10° NNE visible
10 Dec ? 01:29:31 10° WSW 01:33:03 22° WNW 01:36:37 10° NNW visible
11 Dec ? 00:19:50 10° SSW 00:24:24 80° W 00:29:01 10° N visible
12 Dec ? 00:50:54 10° SW 00:55:02 33° WNW 00:59:13 10° N visible
12 Dec ? 23:42:01 10° S 23:46:31 62° E 23:51:04 10° NNE visible
13 Dec ? 01:23:10 10° W 01:25:53 15° WNW 01:28:37 10° NNW visible
14 Dec ? 00:12:28 10° SSW 00:16:56 54° WNW 00:21:28 10° N visible
15 Dec ? 00:43:53 10° WSW 00:47:35 24° WNW 00:51:18 10° NNW visible
16 Dec ? 01:17:16 10° WNW 01:18:26 11° WNW 01:19:37 10° NW visible
17 Dec ? 00:04:57 10° SW 00:09:12 37° WNW 00:13:30 10° N visible
